Wetbulb
56.29 54.03 54.54 57.36 58.40 57.10 56.31 54.99 53.56 53.99 55.40 55.55 57.64 58.47 59.79 65.07 67.12 67.73 69.34 70.20 70.79 71.41 73.60 74.94 75.78 76.22 76.53 77.21 77.36 76.96 75.29 74.03 73.15 73.92 73.13 70.65 67.97 68.46 71.99 71.32 74.73 76.09 77.73 76.20
52.90 51.27 55.62 55.40 55.57 55.82 56.64 55.09 53.61 54.46 56.12 56.69 57.01 57.70 59.44 62.06 65.82 67.37 68.87 69.86 70.93 71.69 72.98 73.83 75.18 75.48 76.00 76.77 77.30 75.99 75.33 74.01 74.05 74.13 74.47 73.21 71.51 71.55 71.02 73.72 75.99 75.75 76.07 76.63
50.85 52.95 54.16 53.70 53.74 53.88 55.93 54.48 52.97 52.71 55.34 56.24 55.66 55.95 57.55 61.69 65.53 66.47 67.92 70.22 71.40 71.50 72.41 73.54 74.20 75.16 75.68 75.98 76.61 76.57 75.01 75.72 74.87 73.29 72.78 72.31 71.25 72.10 72.94 74.57 74.77 75.51 76.05 75.81
51.72 54.03 52.87 52.68 52.27 54.58 52.47 55.05 53.45 52.83 53.01 50.92 55.82 49.62 55.91 56.84 58.59 62.49 65.19 67.25 69.64 71.50 72.95 74.16 74.56 75.23 75.40 75.97 76.28 77.11 75.87 75.82 74.12 73.36 72.11 71.92 69.55 69.76 73.66 74.42 75.21 74.79 74.65 75.45
50.64 51.56 52.26 51.88 52.24 55.36 53.21 54.65 53.76 53.91 53.01 52.68 53.09 50.44 53.70 57.51 58.03 60.85 64.62 65.92 68.56 71.29 72.60 73.46 74.53 75.32 75.97 75.85 75.73 76.24 76.02 74.86 73.54 73.03 72.59 71.85 72.59 73.54 73.94 74.34 74.57 75.20 75.69 73.89
53.14 56.01 54.70 53.89 55.48 55.74 56.22 55.32 55.00 53.95 52.22 48.23 52.10 50.44 50.73 55.82 58.47 60.80 63.60 68.61 68.67 70.61 72.68 73.92 75.25 75.62 75.50 75.73 75.37 75.26 74.69 74.69 73.44 72.91 73.41 73.84 74.51 74.13 73.91 74.61 73.63 73.59 73.63 73.43
51.94 52.86 55.17 56.19 54.16 55.45 55.45 53.24 48.19 46.99 46.78 46.71 54.10 51.30 53.02 58.36 60.51 62.74 63.88 65.77 70.09 71.17 72.36 73.52 74.34 74.46 74.84 74.65 74.72 74.86 74.84 73.88 73.30 72.54 73.19 74.57 74.77 74.42 72.76 72.39 71.95 71.92 72.25 72.70
48.58 46.94 53.21 56.38 55.33 53.31 54.02 53.24 48.64 43.99 44.98 47.39 53.49 48.89 54.56 59.93 62.09 65.55 67.80 67.24 71.32 71.68 73.05 73.98 74.46 74.66 74.69 74.52 75.21 74.92 74.49 73.07 72.78 72.51 73.35 74.71 74.79 73.34 72.67 72.07 72.64 72.24 71.87 71.49
49.18 48.44 54.44 55.62 56.70 56.93 54.03 51.72 54.75 49.99 51.33 47.60 50.90 53.06 56.11 60.75 62.64 64.94 67.36 70.40 71.03 71.95 72.77 73.80 74.54 74.79 74.82 75.47 75.49 75.17 74.36 72.92 72.81 73.08 74.44 74.36 74.12 73.43 72.68 72.03 72.07 71.76 72.34 71.14
53.14 49.34 53.33 54.97 56.22 55.72 56.05 56.83 50.59 51.19 45.45 44.44 48.93 49.63 53.35 55.90 60.08 64.66 66.73 69.45 71.07 72.17 72.58 74.15 74.46 74.94 75.72 75.61 75.66 75.06 74.41 72.59 73.09 73.86 74.07 73.19 72.22 72.85 72.37 71.85 71.19 70.99 71.04 71.54
54.09 52.86 52.19 54.79 53.94 53.31 53.51 52.96 53.98 53.49 52.08 47.50 46.35 49.31 57.88 58.16 62.33 64.84 66.95 68.22 69.75 70.77 72.14 73.88 74.60 75.27 75.14 75.25 74.80 74.37 73.44 73.04 72.30 71.58 68.30 68.01 69.15 71.34 71.60 70.87 71.01 70.73 70.79 71.08
54.67 53.10 49.88 50.84 55.57 55.97 55.80 54.61 54.96 49.99 50.52 50.97 50.95 50.73 58.66 60.63 63.88 64.58 66.06 67.48 68.67 70.66 72.59 73.77 74.52 74.83 74.57 74.50 74.97 73.64 72.22 71.34 69.91 69.70 67.88 68.39 71.35 71.28 70.48 69.83 69.94 69.98 69.66 70.10
55.11 51.56 48.69 49.75 52.78 54.98 53.40 54.73 56.06 56.01 56.31 51.63 47.99 50.65 61.37 63.01 63.27 64.04 65.82 66.64 67.83 69.06 72.39 73.62 74.15 74.45 74.46 74.56 74.47 73.00 72.52 71.39 70.43 69.28 70.25 71.45 71.49 71.02 70.09 70.30 70.03 70.05 69.53 68.91
58.90 53.02 51.50 47.56 50.33 53.50 53.00 53.56 54.01 55.43 50.96 51.86 51.11 53.33 57.14 59.65 61.49 63.97 64.65 65.96 66.10 67.82 69.95 72.68 73.59 74.04 74.80 74.50 74.29 73.65 73.00 71.20 69.76 69.21 70.34 70.82 71.23 71.01 70.38 69.87 69.87 69.81 69.65 68.92
55.90 52.17 53.05 52.33 52.41 53.39 53.90 53.35 52.81 53.65 54.29 51.81 52.86 53.30 59.33 61.46 62.34 64.32 64.53 64.60 64.57 66.37 69.15 70.84 72.59 73.91 74.57 73.58 73.84 73.86 73.17 72.04 71.27 71.30 71.12 71.44 71.64 71.54 70.95 70.24 69.87 69.43 69.51 68.78
56.81 53.05 53.56 50.27 51.48 51.81 51.50 53.39 53.83 53.94 54.25 54.08 53.84 55.40 61.54 62.56 63.86 63.76 64.05 64.07 64.32 65.34 67.91 70.83 72.43 73.40 73.67 73.50 73.08 72.31 71.54 71.17 72.04 71.61 71.22 71.62 71.06 71.09 70.24 70.03 69.86 69.11 68.70 68.62
56.11 54.16 53.36 48.13 51.72 51.11 49.14 52.48 53.85 54.84 56.09 55.39 53.15 59.50 61.73 61.82 62.49 63.58 63.87 64.18 64.32 65.21 66.67 69.05 71.89 73.09 73.62 73.62 73.44 71.72 70.82 71.18 71.64 71.94 71.35 71.01 70.79 70.76 70.48 70.79 70.05 69.16 68.49 68.54
57.20 56.33 54.60 49.58 52.65 44.95 53.33 58.98 56.32 55.33 56.73 58.10 59.73 60.56 61.49 63.34 64.35 65.13 65.39 65.34 67.69 68.24 68.50 68.44 71.65 73.07 73.42 73.50 72.84 73.31 72.75 70.14 70.45 71.85 71.43 70.89 70.25 68.30 69.32 69.60 69.83 68.60 67.65 67.80
60.19 57.20 52.79 50.27 48.85 51.27 54.68 57.60 56.82 56.53 55.62 60.05 58.22 60.51 62.86 63.12 63.69 63.86 66.26 67.17 66.73 67.37 67.84 67.96 70.37 73.46 73.82 72.71 72.52 71.62 71.47 70.51 70.23 71.06 70.45 69.94 69.69 67.94 68.76 68.26 67.76 67.71 65.95 66.03
58.44 59.98 55.05 52.43 48.09 45.88 55.72 59.36 61.28 60.68 54.09 61.91 62.60 62.60 62.72 63.07 59.75 62.52 66.59 66.29 65.33 65.26 66.05 66.42 70.30 73.51 73.02 72.62 72.10 70.41 70.95 70.91 70.33 71.62 71.14 69.83 69.49 69.86 69.40 67.81 68.36 67.08 67.07 66.96
53.50 54.36 51.54 51.63 49.85 52.72 58.00 59.71 60.21 51.71 53.83 60.81 63.40 63.99 64.00 62.68 65.67 67.28 68.00 66.29 66.47 65.48 64.62 66.75 68.16 70.99 72.11 71.99 71.46 69.90 70.08 69.92 71.30 70.72 71.37 70.82 70.53 70.34 70.14 67.71 66.66 67.81 67.99 67.40
51.55 50.36 50.24 52.43 49.58 47.56 61.79 59.66 55.52 61.67 64.16 63.96 63.72 64.73 64.64 66.37 66.25 66.94 67.38 67.76 68.06 67.69 66.09 65.56 65.64 66.33 68.21 70.42 70.65 69.98 69.37 68.11 68.57 67.57 67.95 69.21 69.71 70.10 68.84 69.07 67.23 65.73 64.97 64.06
50.10 54.95 52.60 53.20 52.85 61.32 63.64 63.12 64.83 65.70 64.51 65.02 64.89 65.44 66.24 65.52 65.40 65.86 66.36 66.81 67.43 67.13 67.18 66.93 66.51 65.66 65.76 66.74 68.81 66.03 65.46 66.66 66.97 67.70 68.66 69.13 69.33 68.87 69.62 68.90 68.60 65.73 63.12 62.09
56.10 58.16 56.27 54.58 58.51 60.84 62.95 64.26 65.68 66.77 66.10 66.15 66.09 66.13 66.37 65.73 65.94 66.04 66.55 67.42 67.77 66.76 66.28 66.84 67.13 65.08 63.35 64.24 64.75 64.89 65.37 65.34 65.37 64.73 64.47 65.76 65.74 64.19 63.43 66.46 65.50 62.19 60.24 58.84
56.18 57.88 55.75 55.36 59.76 61.00 62.75 64.30 65.52 66.71 66.76 66.05 66.00 65.92 65.88 66.26 65.72 66.42 66.76 66.63 65.99 66.10 66.09 65.90 65.20 63.85 63.33 63.78 62.97 62.67 62.93 63.89 63.63 63.69 63.21 61.83 60.89 59.06 54.80 50.05 52.60 58.84 59.28 57.93
57.85 56.31 53.65 54.71 60.79 61.61 62.64 64.74 66.34 66.16 66.10 66.99 66.49 66.40 67.07 67.07 66.64 66.82 66.50 66.77 66.50 65.90 65.99 65.78 65.45 64.01 63.44 63.13 62.94 62.95 63.38 63.65 63.34 62.62 62.98 63.00 60.25 56.89 55.05 53.28 50.60 46.03 46.33 46.26
MSLP
1004.81 1004.04 1003.06 1002.55 1002.55 1002.32 1002.51 1002.75 1002.64 1002.79 1003.31 1003.18 1002.25 1002.24 1002.28 1003.16 1004.02 1004.51 1005.53 1006.49 1007.02 1007.41 1008.21 1009.17 1010.17 1011.03 1011.62 1012.42 1013.16 1013.95 1014.62 1015.18 1015.63 1015.32 1015.30 1016.57 1016.98 1016.60 1015.92 1016.42 1016.10 1015.83 1015.25 1015.53
1004.70 1003.70 1003.20 1003.71 1003.64 1003.32 1002.97 1002.75 1002.58 1003.01 1003.37 1003.18 1002.52 1002.20 1002.51 1002.97 1003.51 1003.98 1004.87 1005.78 1006.24 1006.64 1007.56 1008.67 1009.75 1010.80 1011.66 1012.20 1012.90 1013.77 1014.52 1015.23 1015.56 1015.42 1015.48 1015.66 1016.32 1016.08 1016.25 1015.66 1015.65 1015.64 1015.48 1015.20
1003.84 1003.45 1004.25 1004.23 1003.91 1003.50 1002.94 1002.56 1002.48 1002.63 1003.02 1002.88 1002.58 1002.06 1002.43 1003.04 1003.48 1004.00 1004.39 1004.80 1005.44 1006.01 1007.03 1008.35 1009.36 1010.36 1011.27 1011.96 1012.61 1013.34 1014.36 1014.86 1015.23 1015.68 1015.76 1015.99 1016.50 1016.11 1015.50 1015.36 1015.36 1015.36 1015.14 1015.13
1004.06 1004.02 1004.24 1003.87 1003.46 1003.34 1002.32 1002.81 1003.03 1002.90 1002.70 1001.88 1002.57 1001.24 1001.76 1002.26 1002.69 1003.26 1003.57 1004.06 1004.87 1005.77 1006.89 1007.86 1009.01 1010.06 1010.88 1011.78 1012.76 1013.37 1014.40 1014.68 1015.27 1015.66 1015.73 1015.66 1015.66 1015.41 1015.32 1015.14 1015.18 1015.13 1015.14 1015.12
1003.63 1003.95 1003.88 1003.52 1003.14 1003.15 1002.42 1003.06 1003.11 1003.14 1002.72 1002.68 1002.07 1002.20 1001.46 1002.33 1002.25 1002.76 1003.30 1003.96 1004.51 1005.33 1006.35 1007.36 1008.63 1009.75 1010.83 1011.76 1012.58 1013.36 1014.24 1014.84 1015.15 1015.49 1015.74 1015.69 1015.32 1015.19 1015.32 1015.18 1015.26 1015.42 1015.42 1015.28
1003.84 1004.21 1003.85 1003.09 1003.58 1003.38 1003.50 1003.49 1003.50 1003.35 1002.83 1002.36 1002.10 1002.61 1001.13 1001.48 1002.67 1002.90 1003.37 1004.16 1004.69 1005.14 1006.22 1007.29 1008.51 1009.79 1010.79 1011.59 1012.39 1013.10 1013.99 1014.66 1015.34 1015.43 1015.67 1015.72 1015.53 1015.35 1015.23 1015.45 1015.17 1015.14 1015.16 1015.23
1003.82 1003.66 1003.44 1003.57 1003.15 1003.74 1003.33 1002.94 1002.50 1002.38 1002.17 1002.04 1002.97 1002.91 1001.62 1002.44 1003.00 1003.47 1003.98 1004.35 1004.78 1005.53 1006.46 1007.34 1008.58 1009.78 1010.63 1011.40 1012.18 1012.94 1013.88 1014.43 1014.85 1015.39 1015.55 1015.58 1015.62 1015.66 1015.71 1015.78 1015.45 1015.28 1015.02 1015.04
1002.94 1002.87 1003.07 1002.99 1002.68 1002.60 1002.85 1002.37 1001.96 1001.85 1001.86 1002.19 1003.42 1002.36 1001.94 1002.85 1003.35 1003.94 1004.21 1004.51 1004.98 1005.74 1006.49 1007.22 1008.41 1009.44 1010.23 1010.92 1011.81 1012.58 1013.53 1014.09 1014.50 1015.05 1015.40 1015.58 1015.72 1015.56 1015.74 1016.10 1015.85 1015.72 1015.56 1015.54
1002.62 1002.29 1002.56 1002.91 1002.73 1002.77 1002.84 1002.90 1002.59 1002.65 1003.18 1002.90 1001.86 1002.35 1002.42 1002.90 1003.26 1004.04 1004.37 1004.80 1005.58 1006.18 1006.75 1007.58 1008.27 1008.97 1009.70 1010.64 1011.48 1012.25 1013.32 1013.99 1014.33 1014.67 1015.18 1015.30 1015.53 1015.80 1015.82 1016.33 1016.51 1016.32 1016.32 1016.01
1002.83 1002.40 1002.41 1003.09 1003.31 1003.52 1002.77 1002.63 1002.98 1002.74 1002.30 1002.33 1001.91 1002.30 1001.68 1002.49 1002.96 1004.12 1004.92 1005.51 1006.21 1006.64 1007.13 1007.66 1008.28 1008.88 1009.64 1010.38 1011.41 1012.14 1013.12 1013.85 1014.16 1014.50 1015.12 1015.65 1015.76 1015.92 1016.14 1016.45 1016.62 1016.77 1016.65 1016.38
1003.18 1003.19 1002.51 1003.20 1002.61 1002.16 1003.18 1002.83 1002.79 1002.18 1002.71 1001.91 1002.00 1001.76 1002.14 1002.69 1003.47 1004.50 1005.49 1006.06 1006.68 1006.92 1007.29 1007.84 1008.29 1008.87 1009.36 1010.18 1011.23 1012.08 1013.00 1013.84 1014.40 1015.09 1015.73 1016.02 1016.55 1016.20 1016.34 1016.71 1016.86 1016.97 1016.86 1016.68
1003.40 1003.21 1002.45 1002.13 1002.60 1002.85 1002.28 1002.13 1002.33 1002.16 1002.80 1002.92 1002.74 1002.10 1002.54 1003.38 1004.41 1005.25 1006.10 1006.68 1007.21 1007.37 1007.55 1008.01 1008.40 1009.01 1009.47 1010.09 1011.00 1012.48 1013.66 1014.29 1014.98 1015.61 1015.73 1016.25 1016.14 1016.00 1016.46 1016.90 1017.16 1017.26 1017.33 1016.94
1003.41 1003.28 1002.67 1002.34 1002.67 1003.17 1002.66 1002.52 1002.64 1002.52 1002.80 1002.51 1002.45 1002.10 1002.92 1003.98 1004.83 1005.93 1006.59 1007.15 1007.63 1007.84 1008.01 1008.29 1008.76 1009.25 1009.70 1010.36 1011.56 1012.67 1013.49 1014.23 1014.98 1015.68 1015.68 1015.68 1015.48 1015.74 1016.34 1016.89 1017.23 1017.35 1017.26 1016.91
1004.10 1003.14 1002.78 1001.34 1001.18 1001.26 1002.26 1002.44 1002.72 1002.50 1002.12 1001.92 1002.20 1001.91 1002.88 1003.98 1004.88 1006.35 1007.24 1007.64 1007.89 1007.97 1008.11 1008.42 1008.97 1009.44 1010.01 1010.91 1011.72 1012.64 1013.23 1013.88 1014.76 1015.67 1015.41 1015.14 1015.36 1015.88 1016.33 1016.84 1017.10 1017.31 1017.50 1017.46
1004.11 1003.25 1003.00 1002.33 1001.71 1001.89 1001.50 1001.74 1002.27 1002.34 1001.79 1001.85 1001.47 1002.26 1003.36 1004.89 1005.65 1006.47 1007.32 1007.96 1008.19 1008.10 1008.12 1008.61 1009.13 1009.60 1010.13 1011.20 1011.59 1012.35 1012.97 1013.69 1014.48 1015.21 1015.44 1015.32 1015.56 1015.97 1016.58 1016.82 1017.09 1017.43 1017.56 1017.63
1004.09 1003.36 1002.82 1002.45 1002.27 1002.11 1001.84 1001.82 1002.22 1002.36 1002.27 1002.50 1002.38 1002.95 1004.92 1005.98 1006.63 1007.13 1007.63 1007.96 1008.23 1008.34 1008.47 1008.82 1009.22 1009.65 1010.23 1010.95 1011.49 1012.46 1012.98 1013.44 1013.86 1014.58 1015.16 1015.55 1015.85 1016.16 1016.58 1016.94 1017.20 1017.40 1017.62 1017.74
1004.05 1003.36 1003.16 1002.02 1002.22 1002.18 1001.80 1001.56 1001.84 1002.05 1002.22 1002.20 1002.84 1004.12 1005.28 1006.44 1007.06 1007.50 1007.94 1008.33 1008.64 1008.77 1008.95 1009.12 1009.40 1009.82 1010.36 1011.01 1011.59 1012.16 1012.96 1013.34 1013.97 1014.36 1015.01 1015.52 1015.87 1015.96 1016.36 1016.77 1017.08 1017.19 1017.47 1017.74
1004.00 1003.64 1003.04 1001.85 1002.60 1002.07 1001.30 1001.87 1001.75 1002.02 1002.36 1003.04 1003.93 1005.36 1006.14 1006.91 1007.69 1008.48 1008.94 1008.95 1009.42 1009.96 1009.84 1009.62 1009.62 1009.94 1010.49 1011.13 1012.04 1012.21 1012.67 1013.25 1013.62 1014.16 1015.03 1015.58 1015.90 1016.08 1016.19 1016.80 1017.24 1017.54 1017.58 1017.77
1004.06 1003.50 1002.76 1002.54 1002.25 1002.00 1002.69 1002.96 1002.85 1002.74 1003.11 1003.91 1004.26 1005.54 1006.71 1008.00 1008.58 1009.04 1009.60 1010.19 1010.70 1010.97 1011.14 1011.24 1010.98 1010.20 1010.64 1011.37 1012.00 1012.36 1012.67 1013.15 1013.53 1014.02 1014.86 1015.25 1016.03 1016.43 1016.61 1016.99 1017.56 1017.78 1017.80 1018.23
1004.12 1003.93 1002.93 1002.63 1001.85 1002.17 1002.50 1003.75 1004.01 1003.64 1003.90 1005.14 1005.19 1006.06 1007.14 1008.26 1007.53 1008.60 1009.98 1011.04 1011.46 1011.75 1012.00 1012.03 1011.27 1010.63 1011.02 1011.66 1012.33 1012.67 1012.76 1012.95 1013.33 1014.00 1014.80 1015.51 1015.74 1016.16 1016.57 1017.33 1017.53 1017.85 1017.76 1017.91
1003.78 1003.31 1002.71 1002.71 1002.69 1003.61 1004.74 1004.84 1004.62 1004.55 1006.21 1006.03 1006.21 1006.61 1007.25 1007.76 1008.49 1009.21 1010.35 1011.28 1011.79 1012.04 1012.36 1012.45 1012.03 1011.29 1011.62 1012.10 1012.39 1012.58 1012.91 1013.15 1013.64 1014.28 1014.58 1015.10 1015.50 1015.68 1016.14 1017.12 1017.57 1017.45 1017.52 1017.65
1004.48 1003.92 1003.75 1004.21 1004.26 1005.19 1006.26 1005.62 1005.50 1006.98 1006.71 1006.69 1006.79 1007.10 1007.56 1008.52 1009.19 1009.68 1010.21 1010.79 1011.30 1011.83 1012.26 1012.80 1012.79 1012.69 1012.80 1012.64 1012.73 1012.79 1013.37 1014.31 1014.62 1015.02 1015.26 1015.27 1015.54 1015.68 1015.94 1016.41 1017.05 1017.46 1017.86 1018.04
1006.04 1006.18 1005.27 1005.97 1006.13 1007.38 1007.61 1007.72 1007.96 1007.93 1007.68 1007.50 1007.45 1007.65 1008.15 1008.78 1009.36 1009.94 1010.41 1011.02 1011.45 1012.22 1012.30 1012.67 1012.82 1013.12 1013.40 1013.46 1013.32 1013.89 1014.34 1014.76 1014.98 1014.92 1015.12 1015.16 1015.50 1015.87 1015.99 1016.15 1016.32 1016.98 1017.62 1017.96
1007.19 1007.32 1006.33 1007.06 1007.37 1008.02 1008.48 1008.72 1008.80 1008.67 1008.42 1008.34 1007.72 1008.18 1008.48 1008.93 1009.71 1010.26 1010.85 1011.33 1011.77 1012.47 1012.54 1012.70 1012.70 1013.50 1013.86 1014.29 1014.38 1014.61 1014.85 1015.03 1015.14 1015.41 1015.66 1015.77 1015.92 1016.26 1016.64 1016.35 1016.39 1017.01 1017.58 1017.97
1007.40 1007.65 1007.60 1007.49 1008.24 1008.74 1009.24 1009.32 1009.36 1008.83 1009.14 1008.88 1008.66 1008.43 1008.88 1009.28 1010.00 1010.55 1011.12 1011.65 1012.28 1012.51 1012.74 1012.98 1013.33 1013.83 1014.20 1014.60 1015.04 1015.36 1015.35 1015.40 1015.36 1015.55 1015.86 1016.20 1016.43 1016.70 1017.24 1017.56 1017.40 1017.20 1017.59 1017.90
1007.86 1007.80 1007.72 1007.51 1008.86 1009.06 1009.20 1009.71 1009.60 1009.42 1009.30 1009.05 1008.84 1009.05 1009.55 1009.87 1010.38 1010.95 1011.37 1011.88 1012.20 1012.51 1012.91 1013.17 1013.48 1013.99 1014.32 1014.62 1015.10 1015.41 1015.50 1015.47 1015.55 1015.52 1015.50 1015.80 1016.51 1017.16 1017.54 1017.72 1018.01 1018.27 1018.21 1018.36
Wind_Speed
3 10 13 15 12 6 1 6 6 1 2 7 8 9 9 9 10 10 14 15 15 16 13 13 12 12 11 11 11 10 10 7 4 5 4 5 3 4 7 4 7 8 2 6
7 13 3 3 4 8 10 11 8 3 2 7 1 7 3 4 6 8 12 15 17 16 14 12 12 12 11 11 11 11 10 9 7 4 1 2 3 5 2 7 4 4 4 5
13 3 7 8 9 11 13 13 6 6 3 3 3 9 8 6 6 5 8 14 17 17 15 13 13 12 11 11 12 11 11 9 6 4 3 4 5 4 6 4 4 3 3 3
10 8 8 9 11 13 14 10 5 6 8 6 2 6 10 3 6 4 4 11 14 16 13 13 12 12 11 10 9 10 10 9 7 6 4 5 5 5 2 3 3 4 4 2
6 13 11 10 11 13 1 6 7 6 8 7 10 7 3 5 6 1 4 4 10 13 15 13 12 11 10 10 10 10 10 8 7 5 4 6 6 4 4 3 3 3 2 4
2 1 5 5 3 8 9 8 7 6 7 11 1 5 10 3 3 2 6 7 7 10 11 9 11 11 11 11 11 11 11 9 8 6 6 4 4 3 3 1 1 0 1 2
12 12 8 7 8 7 13 12 9 9 10 5 5 6 7 4 1 6 6 3 8 8 9 11 13 12 12 12 12 11 10 10 9 9 7 4 5 4 2 2 2 3 2 1
10 13 15 12 13 11 16 13 9 5 7 4 5 6 3 2 3 2 2 5 9 8 9 11 12 12 12 12 12 11 11 12 11 11 8 5 6 4 4 2 1 1 1 2
9 10 6 4 4 9 9 11 6 5 1 9 5 4 5 2 3 4 7 10 9 7 8 9 11 11 11 11 11 11 11 12 11 11 8 9 8 4 5 4 3 2 0 4
3 8 9 9 7 3 7 8 8 8 6 9 7 4 2 5 7 7 8 10 8 6 7 9 10 11 11 11 10 10 10 11 10 10 7 7 6 7 6 4 3 3 4 5
10 7 11 7 12 13 8 10 9 6 5 5 5 7 6 1 4 8 8 7 7 5 7 8 9 10 10 11 10 11 10 9 8 8 5 4 1 7 6 4 3 4 5 6
14 10 9 15 8 4 7 12 15 10 10 8 8 2 5 3 7 6 8 7 5 4 7 8 10 11 10 11 11 12 11 10 9 10 7 8 11 8 7 5 5 4 5 7
11 9 10 12 8 6 9 11 11 9 5 7 10 4 6 6 5 4 8 6 5 3 6 9 9 10 11 11 10 12 11 11 12 12 13 12 10 9 8 7 6 5 6 8
6 13 13 10 13 10 10 11 13 16 9 9 12 3 9 5 4 9 7 6 4 3 6 7 8 10 10 11 10 11 12 12 14 10 9 10 10 10 9 7 6 6 6 7
8 11 15 16 5 6 10 10 14 15 11 8 9 10 9 5 4 8 8 6 5 3 4 6 9 11 11 11 9 9 11 12 12 11 10 10 9 9 8 8 8 7 6 7
8 10 11 18 14 14 10 9 9 9 6 3 3 7 6 5 8 9 8 7 4 3 3 5 8 11 12 11 10 10 11 14 11 12 10 9 9 9 9 9 8 8 8 7
8 9 9 15 11 14 16 15 13 11 9 8 8 7 5 6 7 8 8 5 3 3 2 4 7 9 10 10 10 12 11 13 10 9 10 10 10 10 9 9 9 9 8 7
8 11 7 9 8 15 4 1 11 12 9 6 7 6 3 7 8 6 3 4 4 4 2 3 5 8 9 9 9 10 11 13 12 9 10 10 10 7 6 7 7 5 6 7
8 11 6 7 13 4 8 7 7 12 9 3 3 8 9 9 11 8 4 4 3 3 2 3 5 4 9 9 9 9 10 13 12 10 10 10 10 9 7 8 10 7 7 6
6 7 9 8 11 11 10 7 3 4 8 5 5 9 12 12 10 6 5 2 2 3 4 4 4 7 8 8 8 8 9 10 11 10 9 9 10 10 9 7 10 10 7 7
8 6 9 9 7 9 5 2 3 10 7 4 4 8 12 10 7 12 8 5 3 5 5 4 4 5 6 7 9 9 8 9 3 5 8 9 10 9 9 9 6 6 7 8
6 5 5 1 4 7 7 4 4 7 3 5 3 6 7 10 9 8 7 6 6 7 8 6 5 6 5 4 6 7 6 6 6 7 6 6 7 7 9 12 10 9 8 8
3 7 3 7 7 5 4 5 4 4 3 5 3 6 8 9 8 6 5 4 4 4 7 6 6 7 7 5 2 7 7 7 6 7 7 7 5 6 7 8 10 7 9 7
3 2 1 3 5 3 3 3 4 2 4 2 5 5 5 6 4 4 3 3 3 4 5 5 5 6 7 6 5 4 5 6 7 6 5 4 4 3 4 5 5 6 7 7
7 2 2 2 4 2 3 4 4 5 2 4 4 5 4 4 4 3 4 4 4 4 5 5 5 4 5 6 5 4 4 4 5 5 5 4 2 2 3 5 4 3 3 5
1 5 5 5 5 5 5 4 2 3 5 6 8 8 5 4 5 3 5 4 3 4 4 3 5 5 4 4 4 3 4 5 6 6 6 3 4 3 3 4 6 17 10 11
Wind_Direction
160 240 219 218 232 318 22 265 272 291 67 285 249 245 245 182 207 197 190 193 198 201 188 187 185 197 200 194 203 203 195 189 235 242 208 139 189 232 212 235 269 239 210 118
222 227 187 2 184 217 229 251 236 161 12 249 191 220 157 207 211 222 192 200 208 200 185 185 190 188 199 193 199 192 195 188 219 244 252 108 198 219 238 222 230 264 228 159
248 113 147 200 187 218 236 250 195 277 168 199 253 214 193 156 210 209 230 212 210 207 186 186 189 192 189 193 198 186 189 191 204 231 177 121 159 238 210 183 177 159 103 70
238 152 206 200 219 223 223 211 223 225 249 240 259 294 178 190 219 212 268 217 216 204 184 183 187 183 190 184 180 173 182 176 177 189 172 175 200 194 202 186 120 106 44 27
156 197 197 216 222 207 115 160 210 218 244 281 199 260 190 170 202 83 40 149 191 189 192 187 182 173 177 156 167 160 162 168 163 171 205 190 197 166 187 180 147 41 51 14
262 297 228 229 109 223 141 154 166 201 255 242 225 274 268 169 28 288 70 105 162 180 178 178 159 156 163 158 155 161 159 166 169 175 177 209 210 205 159 204 180 226 251 103
203 208 189 221 170 180 210 193 223 218 211 253 97 241 297 96 303 320 354 76 145 155 167 160 159 167 167 157 155 156 165 162 161 171 164 176 153 142 121 229 287 269 178 113
210 194 205 191 237 191 210 228 266 244 258 228 134 236 147 45 344 20 46 134 116 139 149 163 165 169 166 158 159 160 164 161 161 164 169 157 157 164 151 253 332 286 77 59
209 227 170 205 192 227 168 222 321 277 178 271 192 188 224 159 166 110 78 94 98 131 138 147 156 165 153 152 157 155 160 164 164 165 169 165 162 173 105 127 207 141 12 113
155 238 192 150 172 127 272 173 194 217 249 257 151 254 260 192 163 114 95 100 111 118 134 150 162 156 147 146 146 136 150 164 172 176 178 160 148 138 130 142 108 94 91 81
229 262 150 183 207 200 177 204 241 309 320 304 230 199 108 338 74 109 104 101 102 118 150 161 162 154 152 146 143 134 137 150 142 131 81 52 74 138 116 121 115 99 89 94
208 223 246 211 107 344 304 250 218 233 184 238 305 340 101 84 113 110 107 102 93 128 152 165 172 167 158 153 141 121 137 141 142 123 157 162 188 136 131 134 123 114 109 95
184 225 216 226 199 192 235 208 242 241 274 192 245 174 116 113 129 118 121 119 121 132 159 165 170 176 169 150 140 148 144 138 146 158 166 180 144 136 137 139 124 112 95 86
250 232 236 249 222 200 196 208 211 215 206 184 224 124 165 104 160 140 135 130 149 163 162 163 175 176 167 138 154 153 143 138 143 164 177 153 147 141 146 138 129 121 113 104
226 227 224 245 267 243 232 201 193 220 236 230 220 201 76 67 63 127 150 146 179 174 163 172 178 177 172 152 165 157 142 147 157 166 180 163 148 146 145 147 139 137 127 117
210 231 223 231 228 244 239 210 195 218 219 259 219 134 62 91 119 135 145 164 167 161 125 168 177 180 176 167 162 150 146 151 160 172 168 163 162 161 154 157 154 146 141 133
199 210 211 219 202 225 231 227 208 205 197 223 217 76 121 126 134 139 139 131 114 102 133 164 187 178 176 171 167 157 159 161 162 173 160 164 172 173 170 174 168 155 147 140
204 203 219 225 183 219 172 271 227 221 213 166 108 57 48 130 116 110 89 123 99 43 11 133 186 178 172 160 166 161 166 171 175 180 173 177 184 181 172 172 174 131 138 147
235 207 179 203 211 127 151 157 177 198 166 170 149 89 131 137 136 123 109 52 15 346 343 290 282 240 157 165 162 161 169 174 186 179 185 191 193 187 177 169 172 157 153 163
169 239 239 198 221 213 92 128 158 201 152 45 90 151 168 185 222 120 133 111 86 35 3 341 262 171 155 155 160 163 174 178 192 179 193 189 191 189 192 174 175 175 181 173
190 219 219 189 218 96 69 87 214 209 81 64 139 160 178 202 22 116 140 141 114 93 59 32 58 106 140 160 168 176 179 198 146 116 190 188 194 186 184 160 177 192 185 162
229 232 172 277 233 139 17 204 271 35 80 42 107 149 149 133 135 147 155 156 143 122 105 89 88 91 93 153 175 177 182 121 135 145 172 185 190 195 188 183 187 185 159 163
186 353 30 345 48 44 14 17 24 350 348 53 102 131 149 158 165 172 165 161 121 97 98 111 104 91 69 56 122 163 153 158 162 163 171 175 190 211 216 226 205 184 165 164
125 342 37 240 86 53 28 40 32 13 11 24 124 159 179 188 178 188 148 124 103 98 84 64 80 80 76 61 85 128 160 159 175 174 185 202 220 226 281 256 181 165 166 159
30 246 44 208 129 217 151 60 19 57 85 105 117 131 169 169 178 155 141 114 100 75 65 46 51 70 90 93 93 122 157 188 184 180 184 188 189 135 94 54 22 127 125 158
28 32 279 18 23 303 72 68 45 120 97 86 94 100 99 114 122 143 112 115 107 101 95 83 94 110 109 113 134 148 162 180 179 182 181 163 147 145 136 113 80 41 63 89